Sea Cloud II — 9HUE6 — position and weather

sailwx.info

Track history (hours):
 
Tides and Currents Weather Stations Pressure Air Temp Water Temp Dewpoint Dewpoint Depression Visibility Wind Speed Wind Dir Waves Ship Positions

Sea Cloud II

Ship's website: http://www.seacloud.com/en/the-ships/sea-cloud-ii.html

Last reported at 2014-Jul-24 12:32 UTC. Time now 2014-Jul-24 13:10 UTC.
Position N 58°42' W 003°25'.

Length 117 m; draft 5.8 m.

Type: Passenger vessel. MMSI: 248953000.

Date/timePositionNaut miles runAvg speedWind from/ knotsBaromVisibWave heightAir tempDewpointWater temp
2014-Jul-24 12:32N 58°42' W 003°25'8 7.8
2014-Jul-24 11:30N 58°43' W 003°09'8 8.9
2014-Jul-24 10:33N 58°38' W 002°56'5 4.6
2014-Jul-24 09:33N 58°34' W 002°52'6 5.5
2014-Jul-24 08:24N 58°28' W 002°45'11 5.5
2014-Jul-24 06:27N 58°20' W 002°33'44 9.1
2014-Jul-24 01:33N 57°42' W 001°47'1110.6
2014-Jul-24 00:33N 57°34' W 001°36'1010.1
2014-Jul-23 23:33N 57°24' W 001°42'10 9.7
2014-Jul-23 22:33N 57°15' W 001°49'50 2.9
2014-Jul-23 05:28N 56°30' W 002°28'16 7.0
2014-Jul-23 03:12N 56°34' W 002°01'28 7.4
2014-Jul-22 23:28N 56°42' W 001°12'8 7.7
2014-Jul-22 22:29N 56°44' W 000°59'316 8.8
2014-Jul-21 10:33N 58°14' E 008°24'1 0.4
2014-Jul-21 08:25N 58°15' E 008°23'0 0.0
2014-Jul-21 07:25N 58°15' E 008°23'0 0.0
2014-Jul-21 06:31N 58°15' E 008°23'3 2.8
2014-Jul-21 05:33N 58°13' E 008°26'1010.4
2014-Jul-21 04:33N 58°20' E 008°40'6 4.7
2014-Jul-21 03:16N 58°19' E 008°51'4 5.2
2014-Jul-21 02:27N 58°17' E 008°58'5 4.5
2014-Jul-21 01:24N 58°18' E 008°49'3 2.6
2014-Jul-21 00:22N 58°21' E 008°51'7 1.8
2014-Jul-20 20:22N 58°23' E 009°04'2 1.9
2014-Jul-20 19:28N 58°24' E 009°07'48 5.2
2014-Jul-20 10:07N 57°57' E 010°23'3 6.0
2014-Jul-20 09:33N 57°55' E 010°28'6 6.3
2014-Jul-20 08:33N 57°51' E 010°38'8 8.0
2014-Jul-20 07:33N 57°45' E 010°48'7 6.9
2014-Jul-20 06:33N 57°40' E 010°55'7 7.2
2014-Jul-20 05:33N 57°37' E 011°08'9 8.5
2014-Jul-20 04:32N 57°31' E 011°20'1111.0
2014-Jul-20 03:33N 57°22' E 011°30'1211.6
2014-Jul-20 02:33N 57°11' E 011°37'1211.2
2014-Jul-20 01:30N 57°00' E 011°45'1110.7
2014-Jul-20 00:30N 56°50' E 011°52'1111.2
2014-Jul-19 23:33N 56°40' E 011°57'1211.8
2014-Jul-19 22:33N 56°28' E 012°01'1110.8
2014-Jul-19 21:33N 56°18' E 012°06'1111.2
2014-Jul-19 20:33N 56°11' E 012°22'1313.0
2014-Jul-19 19:33N 56°03' E 012°40'1211.7
2014-Jul-19 18:33N 55°51' E 012°45'1010.4
2014-Jul-19 17:33N 55°42' E 012°36'1 0.6
2014-Jul-19 16:31N 55°41' E 012°36'0 0.0
2014-Jul-19 15:31N 55°41' E 012°36'0 0.0
2014-Jul-19 14:31N 55°41' E 012°36'0 0.0
2014-Jul-19 13:31N 55°41' E 012°36'0 0.0
2014-Jul-19 12:31N 55°41' E 012°36'0 0.0
2014-Jul-19 11:31N 55°41' E 012°36'0 0.0
2014-Jul-19 10:31N 55°41' E 012°36'0 0.0
2014-Jul-19 09:31N 55°41' E 012°36'0 0.0
2014-Jul-19 08:31N 55°41' E 012°36'0 0.0
2014-Jul-19 07:31N 55°41' E 012°36'0 0.0
2014-Jul-19 06:31N 55°41' E 012°36'0 0.2
2014-Jul-19 05:33N 55°42' E 012°36'3 3.1
2014-Jul-19 04:33N 55°41' E 012°41'9 9.4
2014-Jul-19 03:33N 55°31' E 012°43'7 7.3
2014-Jul-19 02:33N 55°24' E 012°42'7 6.7
2014-Jul-19 01:33N 55°18' E 012°45'8 8.1
2014-Jul-19 00:33N 55°16' E 012°58'9 8.7
2014-Jul-18 23:33N 55°15' E 013°14'9 8.9
2014-Jul-18 22:33N 55°15' E 013°29'9 8.9
2014-Jul-18 21:33N 55°14' E 013°45'8 8.3
2014-Jul-18 20:33N 55°13' E 013°59'1111.2
2014-Jul-18 19:33N 55°15' E 014°19'1212.4
2014-Jul-18 18:33N 55°24' E 014°32'1210.0
2014-Jul-18 17:24N 55°19' E 014°51'8 9.0
2014-Jul-18 16:32N 55°13' E 014°59'0 0.0
2014-Jul-18 15:32N 55°13' E 014°59'0 0.0
2014-Jul-18 14:32N 55°13' E 014°59'0 0.0
2014-Jul-18 13:32N 55°13' E 014°59'0 0.0
2014-Jul-18 12:32N 55°13' E 014°59'0 0.0
2014-Jul-18 11:32N 55°13' E 014°59'0 0.0
2014-Jul-18 10:32N 55°13' E 014°59'2 1.6
2014-Jul-18 09:33N 55°13' E 015°01'7 6.9
2014-Jul-18 08:33N 55°12' E 015°13'0 0.4
2014-Jul-18 07:33N 55°12' E 015°13'1 0.5
2014-Jul-18 06:33N 55°13' E 015°13'6 5.7
2014-Jul-18 05:33N 55°11' E 015°23'1211.5
2014-Jul-18 04:33N 55°10' E 015°43'2512.3
2014-Jul-18 02:33N 55°08' E 016°26'5112.1
2014-Jul-17 22:19N 55°02' E 017°55'912.2
2014-Jul-17 21:33N 55°01' E 018°11'1212.3
2014-Jul-17 20:33N 54°59' E 018°32'1312.5
2014-Jul-17 19:33N 54°52' E 018°50'1110.6
2014-Jul-17 18:33N 54°43' E 018°59'1110.7
2014-Jul-17 17:33N 54°33' E 018°51'1110.5
2014-Jul-17 16:33N 54°25' E 018°39'1 1.2
2014-Jul-17 15:33N 54°24' E 018°41'0 0.0
2014-Jul-17 14:33N 54°24' E 018°41'0 0.0
2014-Jul-17 13:33N 54°24' E 018°41'0 0.0
2014-Jul-17 12:33N 54°24' E 018°41'0 0.0
2014-Jul-17 11:33N 54°24' E 018°41'0 0.0
2014-Jul-17 10:33N 54°24' E 018°41'0 0.0
2014-Jul-17 09:33N 54°24' E 018°41'0 0.0
2014-Jul-17 08:33N 54°24' E 018°41'0 0.0
2014-Jul-17 07:33N 54°24' E 018°41'0 0.1
2014-Jul-17 06:33N 54°24' E 018°40'6 6.1
2014-Jul-17 05:33N 54°30' E 018°44'8 8.2
2014-Jul-17 04:33N 54°36' E 018°53'1211.8
2014-Jul-17 03:34N 54°48' E 018°60'1312.7
2014-Jul-17 02:33N 54°59' E 018°52'1312.8
2014-Jul-17 01:33N 55°12' E 018°44'1312.7
2014-Jul-17 00:33N 55°23' E 018°37'1212.4
2014-Jul-16 23:33N 55°35' E 018°29'1212.3
2014-Jul-16 22:33N 55°47' E 018°22'1612.4
2014-Jul-16 21:14N 56°02' E 018°12'812.2
2014-Jul-16 20:33N 56°10' E 018°09'73 9.1
2014-Jul-16 12:33N 57°22' E 017°48'  
Track history (hours):
 
Tides and Currents Weather Stations Pressure Air Temp Water Temp Dewpoint Dewpoint Depression Visibility Wind Speed Wind Dir Waves Ship Positions

Sea Cloud II

Ship's website: http://www.seacloud.com/en/the-ships/sea-cloud-ii.html

Last reported at 2014-Jul-24 12:32 UTC. Time now 2014-Jul-24 13:10 UTC.
Position N 58°42' W 003°25'.

Length 117 m; draft 5.8 m.

Type: Passenger vessel. MMSI: 248953000.

Date/timePositionNaut miles runAvg speedWind from/ knotsBaromVisibWave heightAir tempDewpointWater temp
2014-Jul-24 12:32N 58°42' W 003°25'8 7.8
2014-Jul-24 11:30N 58°43' W 003°09'8 8.9
2014-Jul-24 10:33N 58°38' W 002°56'5 4.6
2014-Jul-24 09:33N 58°34' W 002°52'6 5.5
2014-Jul-24 08:24N 58°28' W 002°45'11 5.5
2014-Jul-24 06:27N 58°20' W 002°33'44 9.1
2014-Jul-24 01:33N 57°42' W 001°47'1110.6
2014-Jul-24 00:33N 57°34' W 001°36'1010.1
2014-Jul-23 23:33N 57°24' W 001°42'10 9.7
2014-Jul-23 22:33N 57°15' W 001°49'50 2.9
2014-Jul-23 05:28N 56°30' W 002°28'16 7.0
2014-Jul-23 03:12N 56°34' W 002°01'28 7.4
2014-Jul-22 23:28N 56°42' W 001°12'8 7.7
2014-Jul-22 22:29N 56°44' W 000°59'316 8.8
2014-Jul-21 10:33N 58°14' E 008°24'1 0.4
2014-Jul-21 08:25N 58°15' E 008°23'0 0.0
2014-Jul-21 07:25N 58°15' E 008°23'0 0.0
2014-Jul-21 06:31N 58°15' E 008°23'3 2.8
2014-Jul-21 05:33N 58°13' E 008°26'1010.4
2014-Jul-21 04:33N 58°20' E 008°40'6 4.7
2014-Jul-21 03:16N 58°19' E 008°51'4 5.2
2014-Jul-21 02:27N 58°17' E 008°58'5 4.5
2014-Jul-21 01:24N 58°18' E 008°49'3 2.6
2014-Jul-21 00:22N 58°21' E 008°51'7 1.8
2014-Jul-20 20:22N 58°23' E 009°04'2 1.9
2014-Jul-20 19:28N 58°24' E 009°07'48 5.2
2014-Jul-20 10:07N 57°57' E 010°23'3 6.0
2014-Jul-20 09:33N 57°55' E 010°28'6 6.3
2014-Jul-20 08:33N 57°51' E 010°38'8 8.0
2014-Jul-20 07:33N 57°45' E 010°48'7 6.9
2014-Jul-20 06:33N 57°40' E 010°55'7 7.2
2014-Jul-20 05:33N 57°37' E 011°08'9 8.5
2014-Jul-20 04:32N 57°31' E 011°20'1111.0
2014-Jul-20 03:33N 57°22' E 011°30'1211.6
2014-Jul-20 02:33N 57°11' E 011°37'1211.2
2014-Jul-20 01:30N 57°00' E 011°45'1110.7
2014-Jul-20 00:30N 56°50' E 011°52'1111.2
2014-Jul-19 23:33N 56°40' E 011°57'1211.8
2014-Jul-19 22:33N 56°28' E 012°01'1110.8
2014-Jul-19 21:33N 56°18' E 012°06'1111.2
2014-Jul-19 20:33N 56°11' E 012°22'1313.0
2014-Jul-19 19:33N 56°03' E 012°40'1211.7
2014-Jul-19 18:33N 55°51' E 012°45'1010.4
2014-Jul-19 17:33N 55°42' E 012°36'1 0.6
2014-Jul-19 16:31N 55°41' E 012°36'0 0.0
2014-Jul-19 15:31N 55°41' E 012°36'0 0.0
2014-Jul-19 14:31N 55°41' E 012°36'0 0.0
2014-Jul-19 13:31N 55°41' E 012°36'0 0.0
2014-Jul-19 12:31N 55°41' E 012°36'0 0.0
2014-Jul-19 11:31N 55°41' E 012°36'0 0.0
2014-Jul-19 10:31N 55°41' E 012°36'0 0.0
2014-Jul-19 09:31N 55°41' E 012°36'0 0.0
2014-Jul-19 08:31N 55°41' E 012°36'0 0.0
2014-Jul-19 07:31N 55°41' E 012°36'0 0.0
2014-Jul-19 06:31N 55°41' E 012°36'0 0.2
2014-Jul-19 05:33N 55°42' E 012°36'3 3.1
2014-Jul-19 04:33N 55°41' E 012°41'9 9.4
2014-Jul-19 03:33N 55°31' E 012°43'7 7.3
2014-Jul-19 02:33N 55°24' E 012°42'7 6.7
2014-Jul-19 01:33N 55°18' E 012°45'8 8.1
2014-Jul-19 00:33N 55°16' E 012°58'9 8.7
2014-Jul-18 23:33N 55°15' E 013°14'9 8.9
2014-Jul-18 22:33N 55°15' E 013°29'9 8.9
2014-Jul-18 21:33N 55°14' E 013°45'8 8.3
2014-Jul-18 20:33N 55°13' E 013°59'1111.2
2014-Jul-18 19:33N 55°15' E 014°19'1212.4
2014-Jul-18 18:33N 55°24' E 014°32'1210.0
2014-Jul-18 17:24N 55°19' E 014°51'8 9.0
2014-Jul-18 16:32N 55°13' E 014°59'0 0.0
2014-Jul-18 15:32N 55°13' E 014°59'0 0.0
2014-Jul-18 14:32N 55°13' E 014°59'0 0.0
2014-Jul-18 13:32N 55°13' E 014°59'0 0.0
2014-Jul-18 12:32N 55°13' E 014°59'0 0.0
2014-Jul-18 11:32N 55°13' E 014°59'0 0.0
2014-Jul-18 10:32N 55°13' E 014°59'2 1.6
2014-Jul-18 09:33N 55°13' E 015°01'7 6.9
2014-Jul-18 08:33N 55°12' E 015°13'0 0.4
2014-Jul-18 07:33N 55°12' E 015°13'1 0.5
2014-Jul-18 06:33N 55°13' E 015°13'6 5.7
2014-Jul-18 05:33N 55°11' E 015°23'1211.5
2014-Jul-18 04:33N 55°10' E 015°43'2512.3
2014-Jul-18 02:33N 55°08' E 016°26'5112.1
2014-Jul-17 22:19N 55°02' E 017°55'912.2
2014-Jul-17 21:33N 55°01' E 018°11'1212.3
2014-Jul-17 20:33N 54°59' E 018°32'1312.5
2014-Jul-17 19:33N 54°52' E 018°50'1110.6
2014-Jul-17 18:33N 54°43' E 018°59'1110.7
2014-Jul-17 17:33N 54°33' E 018°51'1110.5
2014-Jul-17 16:33N 54°25' E 018°39'1 1.2
2014-Jul-17 15:33N 54°24' E 018°41'0 0.0
2014-Jul-17 14:33N 54°24' E 018°41'0 0.0
2014-Jul-17 13:33N 54°24' E 018°41'0 0.0
2014-Jul-17 12:33N 54°24' E 018°41'0 0.0
2014-Jul-17 11:33N 54°24' E 018°41'0 0.0
2014-Jul-17 10:33N 54°24' E 018°41'0 0.0
2014-Jul-17 09:33N 54°24' E 018°41'0 0.0
2014-Jul-17 08:33N 54°24' E 018°41'0 0.0
2014-Jul-17 07:33N 54°24' E 018°41'0 0.1
2014-Jul-17 06:33N 54°24' E 018°40'6 6.1
2014-Jul-17 05:33N 54°30' E 018°44'8 8.2
2014-Jul-17 04:33N 54°36' E 018°53'1211.8
2014-Jul-17 03:34N 54°48' E 018°60'1312.7
2014-Jul-17 02:33N 54°59' E 018°52'1312.8
2014-Jul-17 01:33N 55°12' E 018°44'1312.7
2014-Jul-17 00:33N 55°23' E 018°37'1212.4
2014-Jul-16 23:33N 55°35' E 018°29'1212.3
2014-Jul-16 22:33N 55°47' E 018°22'1612.4
2014-Jul-16 21:14N 56°02' E 018°12'812.2
2014-Jul-16 20:33N 56°10' E 018°09'73 9.1
2014-Jul-16 12:33N 57°22' E 017°48'  

Dump ship's entire track history